TimeEDT,TemperatureF,Dew PointF,Humidity,Sea Level PressureIn,VisibilityMPH,Wind Direction,Wind SpeedMPH,Gust SpeedMPH,PrecipitationIn,Events,Conditions,WindDirDegrees,DateUTC
12:52 AM,12.9,10.0,88,29.81,10.0,Calm,Calm,-,N/A,,Clear,0,2013-03-21 04:52:00
1:52 AM,12.9,10.0,88,29.81,10.0,South,4.6,-,N/A,,Clear,170,2013-03-21 05:52:00
2:52 AM,10.0,8.1,92,29.81,10.0,SSE,3.5,-,N/A,,Clear,160,2013-03-21 06:52:00
3:52 AM,5.0,1.9,87,29.81,10.0,Calm,Calm,-,N/A,,Clear,0,2013-03-21 07:52:00
4:52 AM,3.9,1.0,88,29.79,10.0,South,3.5,-,N/A,,Scattered Clouds,180,2013-03-21 08:52:00
5:52 AM,3.9,1.0,88,29.79,9.0,Calm,Calm,-,N/A,,Scattered Clouds,0,2013-03-21 09:52:00
6:52 AM,1.9,-0.9,88,29.79,10.0,South,3.5,-,N/A,,Clear,180,2013-03-21 10:52:00
7:52 AM,3.0,1.0,91,29.80,10.0,South,3.5,-,N/A,,Clear,180,2013-03-21 11:52:00
8:52 AM,12.0,10.9,95,29.79,10.0,Calm,Calm,-,N/A,,Clear,0,2013-03-21 12:52:00
9:52 AM,26.1,12.0,55,29.77,10.0,WNW,5.8,-,N/A,,Mostly Cloudy,290,2013-03-21 13:52:00
10:52 AM,28.0,9.0,45,29.74,10.0,Calm,Calm,-,N/A,,Mostly Cloudy,0,2013-03-21 14:52:00
11:52 AM,30.0,8.1,40,29.73,10.0,West,5.8,-,N/A,,Scattered Clouds,260,2013-03-21 15:52:00
12:52 PM,32.0,7.0,35,29.71,10.0,NNW,5.8,-,N/A,,Overcast,330,2013-03-21 16:52:00
1:52 PM,32.0,6.1,34,29.68,10.0,Calm,Calm,-,N/A,,Overcast,0,2013-03-21 17:52:00
2:52 PM,34.0,7.0,32,29.65,10.0,West,4.6,-,N/A,,Overcast,260,2013-03-21 18:52:00
3:52 PM,35.1,7.0,31,29.63,10.0,Variable,4.6,-,N/A,,Overcast,0,2013-03-21 19:52:00
4:52 PM,35.1,9.0,34,29.62,10.0,Calm,Calm,-,N/A,,Overcast,0,2013-03-21 20:52:00
5:52 PM,34.0,8.1,34,29.63,10.0,WSW,4.6,-,N/A,,Overcast,250,2013-03-21 21:52:00
6:52 PM,33.1,9.0,37,29.64,10.0,West,3.5,-,N/A,,Clear,280,2013-03-21 22:52:00
7:52 PM,28.0,12.0,51,29.65,10.0,Calm,Calm,-,N/A,,Clear,0,2013-03-21 23:52:00
8:52 PM,28.9,9.0,43,29.65,10.0,Variable,3.5,-,N/A,,Clear,0,2013-03-22 00:52:00
9:52 PM,28.0,10.0,47,29.64,10.0,Variable,3.5,-,N/A,,Scattered Clouds,0,2013-03-22 01:52:00
10:52 PM,26.1,10.9,53,29.64,10.0,Calm,Calm,-,N/A,,Clear,0,2013-03-22 02:52:00
11:52 PM,26.1,12.0,55,29.65,10.0,Calm,Calm,-,N/A,,Mostly Cloudy,0,2013-03-22 03:52:00